Location: Napa Junction
(38.1874°N, 122.2508°W)
Time: 16:10:52
(UTC+00:00)

ALOS - Pass Details

Date: 08 September 2024
Orbit: 669 x 673 km, 98.0° (Epoch: 08 October)

Event Time Altitude Azimuth Distance (km) Brightness Sun altitude
Rises 12:01:54 0° 354° (N) 3,033 5.8 -20.3°
Reaches altitude 10° 12:04:49 10° 334° (NNW) 2,112 4.8 -19.8°
Enters shadow 12:06:48 16° 309° (NW) 1,740 4.1 -19.4°
